N0WXR Weather Reports


time (UTC)temp
C
wind
direction
speed
KPH
gust
KPH
rain 1hr
cm
rain 24hr
cm
rain mn
cm
humidity
%
barometer
mb
20260508165452 22 276 1.6 3.2 0.00 0.00 0.00 43 1018.0
20260508164953 22 154 1.6 1.6 0.00 0.00 0.00 46 1018.0
20260508164454 22 146 1.6 1.6 0.00 0.00 0.00 41 1018.0
20260508163953 22 166 1.6 3.2 0.00 0.00 0.00 41 1018.0
20260508163452 22 145 1.6 1.6 0.00 0.00 0.00 42 1018.0
20260508162955 22 251 4.8 4.8 0.00 0.00 0.00 44 1018.0
20260508162453 22 147 0.0 0.0 0.00 0.00 0.00 47 1018.0
20260508161953 21 143 1.6 1.6 0.00 0.00 0.00 55 1018.0
20260508161452 22 144 1.6 1.6 0.00 0.00 0.00 54 1018.0
20260508160952 22 155 1.6 1.6 0.00 0.00 0.00 48 1019.0
20260508160453 22 143 0.0 0.0 0.00 0.00 0.00 46 1019.0
20260508155955 21 125 3.2 3.2 0.00 0.00 0.00 43 1019.0
20260508155453 22 143 0.0 1.6 0.00 0.00 0.00 46 1019.0
20260508154953 21 155 3.2 3.2 0.00 0.00 0.00 46 1019.0
20260508154452 21 132 0.0 1.6 0.00 0.00 0.00 47 1019.0
20260508153952 20 152 1.6 1.6 0.00 0.00 0.00 53 1019.0
20260508153456 21 137 1.6 1.6 0.00 0.00 0.00 45 1019.0
20260508152954 21 133 3.2 4.8 0.00 0.00 0.00 47 1019.0
20260508152453 21 161 0.0 1.6 0.00 0.00 0.00 46 1019.0
20260508151952 21 148 0.0 0.0 0.00 0.00 0.00 58 1019.0
20260508151452 20 181 3.2 3.2 0.00 0.00 0.00 54 1019.0
20260508150953 20 141 1.6 1.6 0.00 0.00 0.00 49 1019.0
20260508150452 20 142 0.0 0.0 0.00 0.00 0.00 53 1019.0
20260508145953 19 108 1.6 4.8 0.00 0.00 0.00 54 1019.0
20260508145453 19 19 4.8 4.8 0.00 0.00 0.00 51 1019.0
20260508144953 19 148 0.0 0.0 0.00 0.00 0.00 58 1019.0
20260508144452 19 119 3.2 3.2 0.00 0.00 0.00 57 1019.0
20260508143952 18 149 1.6 1.6 0.00 0.00 0.00 75 1019.0
20260508143453 18 144 0.0 1.6 0.00 0.00 0.00 74 1019.0
20260508142953 18 139 0.0 1.6 0.00 0.00 0.00 65 1019.0
20260508142453 17 138 1.6 1.6 0.00 0.00 0.00 67 1019.0
20260508141952 17 142 1.6 1.6 0.00 0.00 0.00 67 1019.0
20260508141452 17 150 0.0 1.6 0.00 0.00 0.00 66 1019.0
20260508140954 17 144 1.6 1.6 0.00 0.00 0.00 67 1019.0
20260508140453 16 160 0.0 0.0 0.00 0.00 0.00 83 1019.0
20260508135959 16 136 0.0 0.0 0.00 0.00 0.00 68 1019.0
20260508135452 16 86 0.0 0.0 0.00 0.00 0.00 70 1019.0
20260508134956 16 150 0.0 0.0 0.00 0.00 0.00 76 1019.0
20260508134452 15 129 3.2 3.2 0.00 0.00 0.00 80 1019.0
20260508133953 14 143 1.6 1.6 0.00 0.00 0.00 92 1019.0
20260508133452 14 144 0.0 0.0 0.00 0.00 0.00 94 1019.0
20260508132952 14 127 3.2 3.2 0.00 0.00 0.00 82 1019.0
20260508132454 14 146 0.0 0.0 0.00 0.00 0.00 93 1019.0
20260508131953 13 143 0.0 0.0 0.00 0.00 0.00 88 1019.0
20260508131453 13 144 0.0 1.6 0.00 0.00 0.00 99 1019.0
20260508130954 13 138 0.0 0.0 0.00 0.00 0.00 93 1019.0
20260508130452 13 144 0.0 0.0 0.00 0.00 0.00 99 1019.0
20260508125953 13 144 1.6 1.6 0.00 0.00 0.00 97 1018.0
20260508125453 13 137 1.6 1.6 0.00 0.00 0.00 99 1018.0
20260508124952 13 146 0.0 0.0 0.00 0.00 0.00 99 1018.0
20260508124453 13 140 0.0 0.0 0.00 0.00 0.00 99 1018.0
20260508123952 13 145 0.0 0.0 0.00 0.00 0.00 99 1018.0
20260508123452 13 148 0.0 0.0 0.00 0.00 0.00 99 1018.0
20260508122953 12 148 0.0 0.0 0.00 0.00 0.00 99 1018.0
20260508122452 12 149 0.0 0.0 0.00 0.00 0.00 99 1018.0
20260508121952 12 144 0.0 0.0 0.00 0.00 0.00 98 1018.0
20260508121452 12 149 1.6 1.6 0.00 0.00 0.00 97 1018.0
20260508120952 12 144 1.6 1.6 0.00 0.00 0.00 99 1018.0
20260508120453 11 145 0.0 1.6 0.00 0.00 0.00 99 1018.0
20260508115954 12 141 0.0 0.0 0.00 0.00 0.00 99 1018.0
20260508115454 12 145 0.0 0.0 0.00 0.00 0.00 99 1018.0
20260508114952 12 145 0.0 0.0 0.00 0.00 0.00 99 1018.0
20260508114452 12 145 0.0 0.0 0.00 0.00 0.00 99 1018.0
20260508113526 11 148 0.0 0.0 0.00 0.00 0.00 99 1017.0
20260508112952 11 148 0.0 0.0 0.00 0.00 0.00 99 1017.0
20260508112452 11 147 0.0 0.0 0.00 0.00 0.00 99 1017.0
20260508111952 11 148 0.0 0.0 0.00 0.00 0.00 99 1017.0
20260508111452 11 147 0.0 0.0 0.00 0.00 0.00 99 1017.0
20260508110953 10 148 0.0 0.0 0.00 0.00 0.00 99 1017.0
20260508110453 10 148 0.0 0.0 0.00 0.00 0.00 99 1017.0
20260508105953 10 148 0.0 0.0 0.00 0.00 0.00 99 1017.0
20260508105452 10 149 0.0 0.0 0.00 0.00 0.00 99 1017.0
20260508104952 10 148 0.0 0.0 0.00 0.00 0.00 99 1017.0
20260508104452 10 148 0.0 0.0 0.00 0.00 0.00 99 1017.0
20260508103955 10 148 0.0 0.0 0.00 0.00 0.00 99 1017.0
20260508103452 11 148 0.0 0.0 0.00 0.00 0.00 99 1017.0
20260508102952 11 148 0.0 0.0 0.00 0.00 0.00 99 1017.0
20260508102454 11 148 0.0 0.0 0.00 0.00 0.00 99 1017.0
20260508101953 11 148 0.0 0.0 0.00 0.00 0.00 99 1017.0
20260508101452 11 148 0.0 0.0 0.00 0.00 0.00 99 1017.0
20260508100952 11 148 0.0 0.0 0.00 0.00 0.00 99 1017.0
20260508100452 11 148 0.0 0.0 0.00 0.00 0.00 99 1017.0
20260508095952 11 148 0.0 0.0 0.00 0.00 0.00 99 1017.0
20260508095452 11 148 0.0 0.0 0.00 0.00 0.00 99 1017.0
20260508094953 11 148 0.0 0.0 0.00 0.00 0.00 99 1017.0
20260508094452 11 148 0.0 0.0 0.00 0.00 0.00 99 1016.0
20260508093952 11 148 0.0 0.0 0.00 0.00 0.00 99 1016.0
20260508093453 11 148 0.0 0.0 0.00 0.00 0.00 99 1016.0
20260508092953 11 149 0.0 0.0 0.00 0.00 0.00 99 1016.0
20260508092452 11 148 0.0 0.0 0.00 0.00 0.00 99 1016.0
20260508091953 11 148 0.0 0.0 0.00 0.00 0.00 99 1016.0
20260508091452 11 149 0.0 0.0 0.00 0.00 0.00 99 1016.0
20260508090952 11 149 0.0 0.0 0.00 0.00 0.00 99 1016.0
20260508090452 12 149 0.0 0.0 0.00 0.00 0.00 99 1016.0
20260508085953 12 149 0.0 0.0 0.00 0.00 0.00 99 1016.0
20260508085453 12 148 0.0 0.0 0.00 0.00 0.00 99 1016.0
20260508084952 12 148 0.0 0.0 0.00 0.00 0.00 99 1016.0
20260508084455 11 148 0.0 0.0 0.00 0.00 0.00 99 1016.0
20260508083952 11 148 0.0 0.0 0.00 0.00 0.00 99 1016.0
20260508083453 11 149 0.0 0.0 0.00 0.00 0.00 99 1016.0
20260508082952 11 149 0.0 0.0 0.00 0.00 0.00 99 1016.0
20260508082452 11 149 0.0 0.0 0.00 0.00 0.00 99 1015.0
20260508081953 11 149 0.0 0.0 0.00 0.00 0.00 99 1015.0
20260508081453 11 149 0.0 0.0 0.00 0.00 0.00 99 1015.0
20260508080955 11 149 0.0 0.0 0.00 0.00 0.00 99 1015.0
20260508080454 11 157 0.0 0.0 0.00 0.00 0.00 99 1015.0
20260508075953 11 145 0.0 0.0 0.00 0.00 0.00 99 1015.0
20260508075454 11 145 0.0 0.0 0.00 0.00 0.00 99 1015.0
20260508074953 11 145 0.0 0.0 0.00 0.00 0.00 99 1015.0
20260508074453 11 145 0.0 0.0 0.00 0.00 0.00 99 1015.0
20260508073953 11 146 0.0 0.0 0.00 0.00 0.00 99 1015.0
20260508073453 11 145 0.0 0.0 0.00 0.00 0.00 99 1015.0
20260508072953 11 148 0.0 0.0 0.00 0.00 0.00 99 1015.0
20260508072453 11 148 0.0 0.0 0.00 0.00 0.00 99 1015.0
20260508071953 11 148 0.0 0.0 0.00 0.00 0.00 99 1015.0
20260508071453 12 149 0.0 0.0 0.00 0.00 0.00 99 1015.0
20260508070953 12 145 0.0 0.0 0.00 0.00 0.00 99 1015.0
20260508070452 12 145 0.0 0.0 0.00 0.00 0.00 99 1015.0
20260508065953 12 145 0.0 0.0 0.00 0.00 0.00 99 1015.0
20260508065453 12 146 0.0 0.0 0.00 0.00 0.00 99 1015.0
20260508064952 12 145 0.0 0.0 0.00 0.00 0.00 99 1015.0
20260508064452 12 145 0.0 0.0 0.00 0.00 0.00 99 1015.0
20260508063952 12 145 0.0 0.0 0.00 0.00 0.00 99 1015.0
20260508063453 12 145 0.0 0.0 0.00 0.00 0.00 99 1015.0
20260508062952 12 145 0.0 0.0 0.00 0.00 0.00 99 1015.0
20260508062454 12 145 0.0 0.0 0.13 0.00 0.00 99 1015.0
20260508061954 12 145 0.0 0.0 0.13 0.00 0.00 99 1015.0
20260508061452 12 145 0.0 0.0 0.00 0.00 0.00 99 1015.0
20260508060952 12 145 0.0 0.0 0.00 0.00 0.00 99 1015.0
20260508060454 12 145 0.0 0.0 0.00 0.00 0.00 99 1015.0
20260508055952 12 145 0.0 0.0 0.00 0.00 0.00 99 1015.0
20260508055453 12 145 0.0 0.0 0.00 0.00 0.00 99 1015.0
20260508054953 12 145 0.0 0.0 0.00 0.00 0.00 99 1015.0
20260508054452 13 145 0.0 0.0 0.00 0.00 0.00 99 1015.0
20260508053952 13 145 0.0 0.0 0.00 0.00 0.00 99 1015.0
20260508053452 13 146 0.0 0.0 0.00 0.00 0.00 99 1015.0
20260508052952 13 146 0.0 0.0 0.00 0.00 0.00 99 1015.0
20260508052453 13 145 0.0 0.0 0.00 0.00 0.00 99 1015.0
20260508051953 13 145 0.0 0.0 0.00 0.00 0.00 99 1015.0
20260508051453 13 145 0.0 0.0 0.00 0.00 0.00 99 1015.0
20260508050952 13 145 0.0 0.0 0.00 0.00 0.00 99 1015.0
20260508050452 13 145 0.0 0.0 0.00 0.00 0.00 99 1015.0
20260508045952 13 145 0.0 0.0 0.00 0.00 0.00 99 1015.0
20260508045452 13 145 0.0 0.0 0.00 0.00 0.00 99 1015.0
20260508044953 13 145 0.0 0.0 0.00 0.00 0.00 99 1015.0
20260508044452 13 145 0.0 0.0 0.00 0.00 0.00 99 1015.0
20260508043953 13 145 0.0 0.0 0.00 0.00 0.00 99 1015.0
20260508043452 13 145 0.0 0.0 0.00 0.00 0.00 99 1015.0
20260508042952 13 145 0.0 0.0 0.00 0.00 0.00 99 1015.0
20260508042452 13 146 0.0 0.0 0.00 0.00 0.00 99 1014.0
20260508041952 13 145 0.0 0.0 0.00 0.00 0.00 99 1014.0
20260508041452 14 145 0.0 0.0 0.00 0.00 0.00 99 1014.0
20260508040954 14 145 0.0 0.0 0.00 0.00 0.00 99 1014.0
20260508040453 14 145 0.0 0.0 0.00 0.00 0.00 99 1014.0
20260508035952 14 145 0.0 0.0 0.00 0.00 4.45 99 1015.0
20260508035453 14 145 0.0 0.0 0.00 0.00 4.45 99 1015.0
20260508034952 14 145 0.0 0.0 0.00 0.00 4.45 99 1015.0
20260508034452 14 145 0.0 0.0 0.00 0.00 4.45 99 1014.0
20260508033952 14 145 0.0 0.0 0.00 0.00 4.45 99 1014.0
20260508033453 14 145 0.0 0.0 0.00 0.00 4.45 99 1015.0
20260508032953 14 145 0.0 0.0 0.00 0.00 4.45 99 1015.0
20260508032452 14 145 0.0 0.0 0.00 0.00 4.45 99 1014.0
20260508031952 14 145 0.0 0.0 0.00 0.00 4.45 99 1014.0
20260508031452 14 145 0.0 0.0 0.00 0.00 4.45 99 1014.0
20260508030953 14 145 0.0 0.0 0.00 0.00 4.45 99 1014.0
20260508030452 15 145 0.0 0.0 0.00 0.00 4.45 99 1014.0
20260508025952 15 145 0.0 0.0 0.00 0.00 4.45 99 1014.0
20260508025452 15 145 0.0 0.0 0.00 0.00 4.45 99 1014.0
20260508024956 15 145 0.0 0.0 0.00 0.00 4.45 99 1014.0
20260508024452 15 145 0.0 0.0 0.00 0.00 4.45 99 1014.0
20260508023952 15 147 0.0 0.0 0.00 0.00 4.45 99 1014.0
20260508023456 15 145 0.0 0.0 0.00 0.00 4.45 99 1014.0
20260508022505 15 147 0.0 0.0 0.00 0.00 4.45 99 1014.0
20260508021952 15 149 0.0 0.0 0.00 0.00 4.45 99 1014.0
20260508021453 15 147 0.0 0.0 0.00 0.00 4.45 99 1014.0
20260508020953 15 147 0.0 0.0 0.00 0.00 4.45 99 1014.0
20260508020452 15 145 0.0 0.0 0.00 0.00 4.45 99 1014.0
20260508015952 15 147 0.0 0.0 0.00 0.00 4.45 99 1014.0
20260508015453 15 146 0.0 0.0 0.00 0.00 4.45 99 1014.0
20260508014952 15 142 0.0 0.0 0.00 0.00 4.45 99 1014.0
20260508014453 15 142 0.0 0.0 0.00 0.00 4.45 99 1014.0
20260508013953 15 145 0.0 0.0 0.00 0.00 4.45 99 1014.0
20260508013453 15 145 0.0 0.0 0.13 0.00 4.45 99 1013.0
20260508012953 15 144 0.0 0.0 0.13 0.00 4.45 99 1013.0
20260508012453 15 144 0.0 0.0 0.13 0.00 4.45 99 1013.0
20260508011952 15 144 0.0 0.0 0.13 0.00 4.45 99 1013.0
20260508011452 15 142 0.0 0.0 0.13 0.00 4.42 99 1013.0
20260508010952 15 137 0.0 1.6 0.25 0.00 4.42 99 1013.0
20260508010452 15 142 1.6 1.6 0.13 0.00 4.39 99 1013.0
20260508005953 15 145 1.6 1.6 0.13 0.00 4.37 99 1013.0
20260508005452 15 141 1.6 1.6 0.25 0.00 4.37 99 1013.0
20260508004952 15 140 0.0 1.6 0.13 0.00 4.34 99 1013.0
20260508004453 15 133 1.6 4.8 0.25 0.00 4.32 99 1012.0
20260508003953 15 141 0.0 1.6 0.25 0.00 4.32 99 1012.0
20260508003452 15 142 0.0 0.0 0.25 0.00 4.29 99 1012.0
20260508002953 15 145 0.0 0.0 0.25 0.00 4.29 99 1012.0
20260508002453 15 147 0.0 0.0 0.25 0.00 4.22 99 1012.0
20260508001953 15 145 1.6 1.6 0.38 0.00 4.22 99 1012.0
20260508001454 16 145 1.6 1.6 0.38 0.00 4.19 99 1012.0
20260507182954 24 155 1.6 3.2 0.13 0.00 3.25 84 1009.0
20260507182454 23 148 0.0 0.0 0.25 0.00 3.25 85 1009.0
20260507181952 23 188 3.2 4.8 0.13 0.00 3.25 81 1009.0
20260507181453 24 148 0.0 1.6 0.00 0.00 3.23 80 1009.0
20260507180953 23 158 0.0 3.2 0.13 0.00 3.23 85 1009.0
20260507180453 23 151 1.6 1.6 0.25 0.00 3.23 88 1009.0
20260507175955 22 143 0.0 0.0 0.13 0.00 3.20 88 1009.0
20260507175452 22 221 1.6 1.6 0.00 0.00 3.17 87 1009.0
20260507174955 23 154 3.2 3.2 0.13 0.00 3.17 90 1009.0
20260507174454 22 148 0.0 1.6 0.25 0.00 3.17 94 1009.0
20260507173952 22 225 8.0 8.0 0.13 0.00 3.17 88 1009.0
20260507173453 22 153 0.0 1.6 0.00 0.00 3.15 94 1010.0
20260507172953 21 295 3.2 8.0 0.13 0.00 3.15 91 1010.0
20260507172453 21 151 1.6 4.8 0.25 0.00 3.15 97 1009.0
20260507171952 21 147 0.0 1.6 0.13 0.00 3.12 99 1009.0
20260507171453 21 144 3.2 3.2 0.13 0.00 3.10 98 1009.0
20260507170954 21 149 0.0 0.0 0.13 0.00 3.10 96 1009.0
20260507170453 21 153 0.0 0.0 0.13 0.00 3.07 96 1009.0
20260507165953 21 176 3.2 4.8 0.13 0.00 3.07 93 1009.0